020801 300  0.1+  1.9-    020807 213  0.7+  0.4-    070716 A79  0.2+  0.1+  

020801 300  0.7+  0.2-    020807 213  0.2+  0.1-    070716 A79  0.8+  0.5-  

020801 300  1.5+  1.5-    020808 213  1.0-  0.7-    070716 A79  0.0   1.0-  

020801 300  0.4-  0.2-    020808 213  0.1-  0.8+    070716 A79  0.5+  0.4-  

020801 300  0.1-  0.6-    020808 213 (1.8-  3.3+)   070716 473  0.2+  0.4+  

020801 300  0.1+  0.4-    020808 170  0.4-  0.3+    070716 473  0.1+  0.4+  

020801 300  0.2+  0.1+    020808 170  0.4+  0.3+    070716 473  0.1+  0.5+  

020801 300  0.1+  0.6-    020808 170  1.2-  0.9+    070716 048  0.4+  0.5-  

020801 372  0.4+  0.2+    020808 170  0.5-  0.2-    070716 048  0.7-  0.2+  

020801 599  0.8-  0.0     020808 170  1.1+  0.1+    070716 048  0.5-  0.0   

020801 599  0.1+  0.3+    020810 848 (2.3+  2.1-)   070716 048  0.2-  0.3-  

020801 599  0.2+  0.6+    020810 848  0.1-  0.6-    070716 048  0.5+  0.4-  

020801 599  0.6+  0.3+    020810 848  0.2-  1.2+    070716 J95  0.2+  0.3+  

020801 159  0.0   0.1+    020810 349  0.4+  0.5+    070716 J95  0.1-  0.1+  

020801 159  0.3+  0.1+    020810 349  0.6-  0.3+    070716 J95  0.3+  0.5+  

020801 159  0.2+  0.0     020810 349  0.5+  0.6+    070717 850  0.1+  0.1+  

020801 159  0.4+  0.0     020810 349  0.0   0.4-    070717 673  0.5-  0.6+  

020801 159  0.4-  0.0     020811 213  0.3-  0.2+    070717 673  0.6-  0.7+  

020801 159  0.1-  0.3+    020811 213  0.2-  0.9+    070717 673  0.6-  0.7+  

020801 159  0.1-  0.1-    020811 213  1.1-  0.1+    070717 673  0.6-  0.6+  

020801 159  0.1+  0.2+    020812 170  0.3-  0.8+    070717 850  0.8+  0.5-  

020801 159  1.3+  0.2-    020812 170  0.2-  1.1+    070717 048  0.0   0.8-  

020801 213  0.6-  0.8+    020812 170  1.3+  1.4+    070717 048  0.1-  0.3-  

020801 213  0.1+  0.2+    020812 213  0.0   0.3-    070717 048  0.1+  0.8-  

020801 213  0.9-  0.6-    020812 213 (2.2+  0.2+)   070717 048  0.1-  1.7-  

020801 159  0.2+  0.3+    020812 J95  0.1+  0.6+    070717 048  0.4+  1.5-  

020801 159  0.8+  0.3+    020812 J95  1.0+  0.0     070717 585 (1.0-  6.0-) 

020801 159  0.3+  0.2+    020812 J95  0.7+  0.1-    070717 585 (0.0   4.1-) 

020801 170 (0.9-  3.2-)   020812 J95  0.2+  0.1+    070717 585 (3.1- 11.7-) 

020801 159  0.2+  0.1-    020813 613 (6.1+  2.8+)   070717 585 (1.3- 10.9-) 

020801 170  1.6+  0.6-    020813 613  1.8-  0.4+    070717 585 (0.8-  5.1-) 

020801 159  0.2+  0.0     020814 613  0.8-  1.9-    070717 585 (0.4+  6.9-) 

020801 159  1.0-  0.4+    020814 215  1.0+  0.7-    070717 A21  0.6-  1.2+  

020801 170  0.0   0.5-    020814 215  1.1+  0.1+    070718 A21  0.1-  1.0+  

020801 159  0.2-  0.4-    020814 613 (0.0   3.0-)   070718 673  0.5-  1.1+  

020801 170  1.5-  0.7-    020814 215  0.4+  0.1+    070718 673  0.6-  1.2+  

020801 159  0.9+  0.2-    020814 613 (3.5-  2.9-)   070718 673  0.5-  1.2+  

020801 159  0.5+  0.6-    020814 J95  0.5+  0.0     070718 673  0.5-  1.2+  

020801 J95  0.8+  0.9+    020814 J95  1.0+  0.1-    070718 415  0.3+  0.4-  

020801 J95  0.3+  0.4+    020814 J95  0.0   0.1+    070718 415  0.2+  0.5-  

020801 J95  1.3+  0.5+    020817 704  0.8+  0.3-    070718 415  0.1-  0.1+  

020802 649  0.6-  0.8-    020817 704  0.1+  0.3+    070718 213  0.1-  0.3+  

020802 649  1.3-  0.2-    020817 704  0.2+  0.0     070718 213  0.0   0.1-  

020802 649  1.9-  0.4-    020817 704  0.5+  0.3-    070718 213  0.2-  0.0   

020802 428  0.4-  0.0     020817 170  0.2-  1.0-    070718 048  0.8-  0.4-  

020802 428  0.3-  0.2-    020819 170  0.5+  0.4-    070718 048  1.0-  1.3-  

020802 428  0.2-  0.4-    020819 170  0.3+  0.2-    070718 048  0.5-  0.7-  

020802 599  0.3-  0.2+    020819 170  0.2+  0.8-    070718 048  0.5-  1.6-  

020802 204 (8.2+  2.4-)   020819 170  1.4-  1.7-    070718 048  0.7-  0.6-  

020802 599  1.0-  0.4+    020819 170  0.3-  1.8-    070719 850  0.1+  0.6+  

020802 599  0.4-  0.3+    020820 213  1.9+  1.0-    070719 850  0.1+  0.6+  

020802 599  0.2-  0.3+    020820 213 (0.6+  2.4+)   070719 850  0.1+  0.8+  

020802 941  0.4+  0.6-    020820 213  0.4+  0.2-    070719 673  0.8-  1.0+  

020802 941  0.7-  0.4+    020826 118  0.7+  0.9-    070719 673  0.5-  1.3+  

020802 941  1.2+  1.1-    020826 118  0.2+  1.5-    070719 850  0.2-  0.8+  

020802 204  1.0-  0.1-    020826 118  1.0+  1.3-    070719 673  0.6-  0.9+  

020802 844  1.5+  0.4+    020827 670  0.3+  1.3+    070719 673  0.5-  1.2+  

020802 118 (3.0+  3.5+)   020827 670  0.4-  0.8+    070719 850  0.0   0.7+  

020802 844  0.8+  0.8-    020828 J95  0.9-  1.1+    070719 850  0.0   0.3+  

020802 118 (1.9+  2.1+)   020828 J95  0.8+  0.8+    070719 H06  0.0   0.5+  

020802 844  1.5+  1.1+    020828 J95  1.0-  1.2+    070719 H06  0.1-  0.6+  

020802 118 (0.6+  2.5+)   020828 J95  0.0   1.4+                            

020802 844 (3.2-  0.1-)   020829 246  0.6-  1.2+                            



NAKANO

         **** Don't distribute anyone except personal use only ****

                (C) Copyright 2007 OAA/ComputingSection

write mail from CFAD0::NAKANO on 2007-07-23 23:53:36(JST).

 

 

    P/2002 O5 (NEAT)                                                      

Epoch 2002 July 25.0 TT = JDT 2452480.5  

T 2002 Aug. 3.10161 TT                                  Nakano

q   1.1742482            (2000.0)            P               Q

n   0.19783357     Peri.   15.30613     +0.44580397     +0.82776160

a   2.9169975      Node   282.20919     -0.85351721     +0.27838942

e   0.5974463      Incl.   20.40011     -0.26975397     +0.48714481

P   4.98 (+/- 0.04 day)

From 251 observations 2002 July 30-Nov. 7, mean residual 0".72.



NAKANO

         **** Don't distribute anyone except personal use only ****

                (C) Copyright 2002 OAA/ComputingSection

write mail from CFAD0::NAKANO on 2002-11-19 01:50:02(JST).

 



    P/2002 O5 (NEAT)

T 2002 Aug. 3.10172 TT                                  Nakano

q   1.1742638            (2000.0)            P               Q

n   0.19775757     Peri.   15.30654     +0.44579032     +0.82776163

a   2.9177448      Node   282.20803     -0.85352554     +0.27837265

e   0.5975440      Incl.   20.40113     -0.26975015     +0.48715433

P   4.98 (+/- 0.24 day)

From 246 observations 2002 July 30-Oct. 3.

NAKANO

         **** Don't distribute anyone except personal use only ****

                (C) Copyright 2002 OAA/ComputingSection

write mail from CFAD0::NAKANO on 2002-10-29 00:21:33(JST).



    P/2002 O5 (NEAT) 

T 2002 Aug. 3.10212 TT                                  Nakano

q   1.1742367            (2000.0)            P               Q

n   0.19787087     Peri.   15.30666     +0.44582262     +0.82775914

a   2.9166309      Node   282.20978     -0.85350814     +0.27841341

e   0.5973996      Incl.   20.39901     -0.26975182     +0.48713528

P   4.98 (+/- 0.55 day)

From 244 observations 2002 July 30-Sept. 12.





NAKANO

         **** Don't distribute anyone except personal use only ****

                (C) Copyright 2002 OAA/ComputingSection

write mail from CFAD0::NAKANO on 2002-09-17 00:59:40(JST).

 

    P/2002 O5 (NEAT) 

T 2002 Aug. 3.11026 TT                                  Nakano

q   1.1739170            (2000.0)            P               Q

n   0.19917304     Peri.   15.31239     +0.44625103     +0.82771165

a   2.9039046      Node   282.22937     -0.85328697     +0.27895346

e   0.5957453      Incl.   20.37270     -0.26974315     +0.48690697

P   4.95 (+/- 1.42 day)

From 207 observations 2002 July 30-Aug. 20.



NAKANO

         **** Don't distribute anyone except personal use only ****

                (C) Copyright 2002 OAA/ComputingSection

write mail from CFAD0::NAKANO on 2002-08-27 05:17:55(JST).

 



◎P/2002 O5の軌道と予報位置です



 前回のEMESのとおり,かなり周期の短い短周期彗星のようです.



    P/2002 O5 (NEAT) 

T 2002 Aug. 3.12038 TT                                  Nakano

q   1.1736861            (2000.0)            P               Q

n   0.20005078     Peri.   15.32182     +0.44662050     +0.82765461

a   2.8954043      Node   282.24230     -0.85310668     +0.27941817

e   0.5946383      Incl.   20.35209     -0.26970190     +0.48673743

P   4.93 (+/- 6.29 day)

From 159 observations 2002 July 30-Aug. 8.

 

Date/        TT  R.A.(2000) Decl.     Delta   r     Daily motion  Mag.  Moon Age

              h    h  m       。  ,                      ,  / PA 。  m1      。

2002 Aug. 10 12  16 48.84  +04 42.7   0.346  1.177    73.8 /  50  15.9   87  .04

          11 12  16 52.63  +05 30.0   0.350  1.178    72.8 /  51  15.9   75  .10

          12 12  16 56.42  +06 15.9   0.354  1.179    71.8 /  52  16.0   63  .19

          13 12  17 00.20  +07 00.4   0.357  1.181    70.8 /  52  16.0   52  .29

          14 12  17 03.97  +07 43.5   0.361  1.182    69.8 /  53  16.0   43  .40

          15 12  17 07.73  +08 25.3   0.366  1.183    68.8 /  54  16.0   36  .51

          16 12  17 11.49  +09 05.8   0.370  1.185    67.8 /  55  16.1   32  .62

          17 12  17 15.23  +09 44.8   0.374  1.187    66.8 /  55  16.1   33  .72

          18 12  17 18.96  +10 22.6   0.378  1.189    65.8 /  56  16.1   38  .81

          19 12  17 22.68  +10 59.0   0.383  1.191    64.9 /  57  16.2   45  .88

          20 12  17 26.39  +11 34.2   0.388  1.193    63.9 /  58  16.2   53  .94

          21 12  17 30.08  +12 08.0   0.392  1.195    63.0 /  59  16.2   62  .98

          22 12  17 33.76  +12 40.6   0.397  1.197    62.1 /  60  16.3   71 1.00

          23 12  17 37.42  +13 12.0   0.402  1.200    61.2 /  60  16.3   80 1.00

          24 12  17 41.07  +13 42.1   0.407  1.202    60.3 /  61  16.3   89  .98

          25 12  17 44.71  +14 11.0   0.412  1.205    59.5 /  62  16.4   97  .94

          26 12  17 48.33  +14 38.7   0.417  1.208    58.7 /  63  16.4  105  .89

          27 12  17 51.94  +15 05.3   0.423  1.211    57.9 /  64  16.5  113  .82

          28 12  17 55.53  +15 30.7   0.428  1.214    57.1 /  65  16.5  120  .74

